| time (UTC) | temp F | wind direction | speed MPH | gust MPH | rain 1hr in | rain 24hr in | rain mn in | humidity % | barometer mb |
| 20260510174533 | 60 | 77 | 6.0 | 12.0 | 0.00 | 0.06 | 0.06 | 55 | 1020.3 |
| 20260510173031 | 59 | 71 | 6.0 | 14.0 | 0.00 | 0.06 | 0.06 | 57 | 1020.7 |
| 20260510171529 | 57 | 42 | 9.0 | 16.0 | 0.00 | 0.06 | 0.06 | 61 | 1020.2 |
| 20260510170034 | 56 | 50 | 8.0 | 15.0 | 0.01 | 0.06 | 0.06 | 66 | 1019.8 |
| 20260510164545 | 55 | 86 | 11.0 | 19.0 | 0.01 | 0.06 | 0.06 | 65 | 1019.6 |
| 20260510163027 | 54 | 13 | 6.0 | 12.0 | 0.01 | 0.06 | 0.06 | 76 | 1020.0 |
| 20260510161525 | 54 | 62 | 5.0 | 11.0 | 0.01 | 0.06 | 0.06 | 79 | 1019.7 |
| 20260510160027 | 53 | 80 | 8.0 | 13.0 | 0.00 | 0.05 | 0.05 | 76 | 1018.8 |
| 20260510154523 | 54 | 55 | 8.0 | 11.0 | 0.00 | 0.05 | 0.05 | 73 | 1019.2 |
| 20260510153028 | 54 | 51 | 8.0 | 12.0 | 0.00 | 0.05 | 0.05 | 72 | 1019.2 |
| 20260510151520 | 54 | 83 | 9.0 | 13.0 | 0.00 | 0.05 | 0.05 | 73 | 1019.2 |
| 20260510150022 | 53 | 76 | 8.0 | 13.0 | 0.01 | 0.05 | 0.05 | 76 | 1019.2 |
| 20260510144523 | 53 | 78 | 8.0 | 15.0 | 0.01 | 0.05 | 0.05 | 77 | 1019.2 |
| 20260510143017 | 53 | 54 | 12.0 | 16.0 | 0.01 | 0.05 | 0.05 | 80 | 1019.2 |
| 20260510141515 | 54 | 40 | 8.0 | 12.0 | 0.03 | 0.05 | 0.05 | 78 | 1019.0 |
| 20260510140013 | 54 | 57 | 10.0 | 16.0 | 0.03 | 0.04 | 0.04 | 78 | 1019.1 |
| 20260510134510 | 54 | 40 | 9.0 | 13.0 | 0.04 | 0.04 | 0.04 | 79 | 1019.2 |
| 20260510133008 | 54 | 51 | 8.0 | 12.0 | 0.04 | 0.04 | 0.04 | 79 | 1019.1 |
| 20260510131505 | 56 | 14 | 9.0 | 12.0 | 0.02 | 0.02 | 0.02 | 75 | 1019.1 |
| 20260510130001 | 57 | 15 | 5.0 | 8.0 | 0.01 | 0.01 | 0.01 | 72 | 1018.6 |
| 20260510124612 | 57 | 58 | 3.0 | 10.0 | 0.00 | 0.00 | 0.00 | 69 | 1018.3 |
| 20260510123056 | 58 | 344 | 6.0 | 14.0 | 0.00 | 0.00 | 0.00 | 68 | 1017.6 |
| 20260510121549 | 59 | 30 | 10.0 | 16.0 | 0.00 | 0.00 | 0.00 | 64 | 1016.8 |
| 20260510120045 | 60 | 74 | 10.0 | 18.0 | 0.00 | 0.00 | 0.00 | 63 | 1016.0 |
| 20260510114543 | 60 | 59 | 9.0 | 15.0 | 0.00 | 0.00 | 0.00 | 63 | 1015.4 |
| 20260510113039 | 60 | 47 | 9.0 | 15.0 | 0.00 | 0.00 | 0.00 | 63 | 1014.9 |
| 20260510111558 | 60 | 76 | 9.0 | 19.0 | 0.00 | 0.00 | 0.00 | 63 | 1014.1 |
| 20260510110037 | 60 | 72 | 12.0 | 21.0 | 0.00 | 0.00 | 0.00 | 63 | 1013.6 |
| 20260510104539 | 60 | 94 | 12.0 | 20.0 | 0.00 | 0.00 | 0.00 | 62 | 1013.4 |
| 20260510103034 | 61 | 62 | 12.0 | 21.0 | 0.00 | 0.00 | 0.00 | 62 | 1013.2 |
| 20260510101526 | 61 | 49 | 10.0 | 20.0 | 0.00 | 0.00 | 0.00 | 63 | 1013.1 |
| 20260510100023 | 60 | 18 | 10.0 | 18.0 | 0.00 | 0.00 | 0.00 | 63 | 1012.8 |
| 20260510094523 | 61 | 83 | 10.0 | 19.0 | 0.00 | 0.00 | 0.00 | 63 | 1012.7 |
| 20260510093018 | 61 | 46 | 11.0 | 16.0 | 0.00 | 0.00 | 0.00 | 63 | 1012.4 |
| 20260510091534 | 62 | 67 | 11.0 | 18.0 | 0.00 | 0.00 | 0.00 | 63 | 1012.4 |
| 20260510090014 | 62 | 45 | 10.0 | 16.0 | 0.00 | 0.00 | 0.00 | 63 | 1012.2 |
| 20260510084511 | 62 | 76 | 10.0 | 20.0 | 0.00 | 0.00 | 0.00 | 64 | 1012.0 |
| 20260510083008 | 62 | 32 | 8.0 | 12.0 | 0.00 | 0.00 | 0.00 | 63 | 1012.0 |
| 20260510081518 | 63 | 35 | 7.0 | 10.0 | 0.00 | 0.00 | 0.00 | 62 | 1012.0 |
| 20260510080002 | 63 | 28 | 6.0 | 10.0 | 0.00 | 0.00 | 0.00 | 61 | 1011.6 |
| 20260510074501 | 63 | 61 | 6.0 | 10.0 | 0.00 | 0.00 | 0.00 | 61 | 1011.5 |
| 20260510073059 | 64 | 57 | 5.0 | 9.0 | 0.00 | 0.00 | 0.00 | 60 | 1011.6 |
| 20260510071557 | 64 | 44 | 6.0 | 9.0 | 0.00 | 0.00 | 0.00 | 60 | 1011.6 |
| 20260510064606 | 66 | 25 | 5.0 | 10.0 | 0.00 | 0.00 | 0.00 | 55 | 1011.4 |
| 20260510063048 | 66 | 40 | 5.0 | 7.0 | 0.00 | 0.00 | 0.00 | 54 | 1011.3 |
| 20260510061548 | 67 | 84 | 3.0 | 7.0 | 0.00 | 0.00 | 0.00 | 52 | 1010.9 |
| 20260510060042 | 67 | 59 | 3.0 | 6.0 | 0.00 | 0.00 | 0.00 | 52 | 1010.8 |
| 20260510054538 | 67 | 46 | 4.0 | 9.0 | 0.00 | 0.00 | 0.00 | 51 | 1010.6 |
| 20260510053035 | 68 | 39 | 5.0 | 6.0 | 0.00 | 0.00 | 0.00 | 51 | 1010.0 |
| 20260510051532 | 67 | 71 | 0.0 | 4.0 | 0.00 | 0.00 | 0.00 | 51 | 1009.8 |
| 20260510050036 | 68 | 67 | 1.0 | 6.0 | 0.00 | 0.00 | 0.00 | 52 | 1009.7 |
| 20260510044533 | 68 | 62 | 4.0 | 6.0 | 0.00 | 0.00 | 0.00 | 51 | 1009.6 |
| 20260510043029 | 69 | 76 | 2.0 | 4.0 | 0.00 | 0.00 | 0.00 | 49 | 1009.9 |
| 20260510041530 | 69 | 99 | 1.0 | 2.0 | 0.00 | 0.00 | 0.00 | 49 | 1009.9 |
| 20260510040028 | 70 | 98 | 0.0 | 2.0 | 0.00 | 0.00 | 0.00 | 47 | 1010.0 |
| 20260510034527 | 71 | 142 | 2.0 | 5.0 | 0.00 | 0.00 | 0.00 | 45 | 1009.7 |
| 20260510033027 | 71 | 167 | 1.0 | 5.0 | 0.00 | 0.00 | 0.00 | 46 | 1009.8 |
| 20260510031532 | 71 | 228 | 2.0 | 10.0 | 0.00 | 0.00 | 0.00 | 47 | 1009.5 |
| 20260510030025 | 73 | 210 | 4.0 | 10.0 | 0.00 | 0.00 | 0.00 | 46 | 1009.5 |
| 20260510024531 | 73 | 228 | 4.0 | 8.0 | 0.00 | 0.00 | 0.00 | 41 | 1010.2 |
| 20260510023025 | 74 | 257 | 4.0 | 11.0 | 0.00 | 0.00 | 0.00 | 42 | 1009.8 |
| 20260510021523 | 75 | 235 | 6.0 | 12.0 | 0.00 | 0.00 | 0.00 | 39 | 1009.7 |
| 20260510020023 | 76 | 177 | 9.0 | 18.0 | 0.00 | 0.00 | 0.00 | 38 | 1009.8 |
| 20260510014527 | 76 | 230 | 3.0 | 7.0 | 0.00 | 0.00 | 0.00 | 36 | 1009.2 |
| 20260510013023 | 76 | 197 | 2.0 | 7.0 | 0.00 | 0.00 | 0.00 | 35 | 1008.6 |
| 20260510011523 | 76 | 142 | 3.0 | 8.0 | 0.00 | 0.00 | 0.00 | 34 | 1007.5 |
| 20260510010021 | 77 | 142 | 4.0 | 9.0 | 0.00 | 0.00 | 0.00 | 33 | 1007.1 |
| 20260510004519 | 78 | 181 | 5.0 | 13.0 | 0.00 | 0.00 | 0.00 | 32 | 1006.7 |
| 20260510003019 | 79 | 179 | 7.0 | 11.0 | 0.00 | 0.00 | 0.00 | 31 | 1006.6 |
| 20260510001518 | 80 | 150 | 6.0 | 15.0 | 0.00 | 0.00 | 0.00 | 29 | 1006.3 |
| 20260510000018 | 81 | 150 | 7.0 | 14.0 | 0.00 | 0.00 | 0.00 | 28 | 1006.1 |
| 20260509234530 | 83 | 145 | 6.0 | 11.0 | 0.00 | 0.00 | 0.00 | 26 | 1006.3 |
| 20260509233030 | 83 | 157 | 7.0 | 11.0 | 0.00 | 0.00 | 0.00 | 24 | 1006.3 |
| 20260509231516 | 84 | 141 | 5.0 | 10.0 | 0.00 | 0.00 | 0.00 | 23 | 1006.5 |
| 20260509230015 | 85 | 164 | 8.0 | 12.0 | 0.00 | 0.00 | 0.00 | 22 | 1006.3 |
| 20260509224517 | 85 | 214 | 4.0 | 11.0 | 0.00 | 0.00 | 0.00 | 20 | 1006.4 |
| 20260509223017 | 85 | 131 | 6.0 | 12.0 | 0.00 | 0.00 | 0.00 | 22 | 1006.4 |
| 20260509221513 | 85 | 206 | 7.0 | 12.0 | 0.00 | 0.00 | 0.00 | 20 | 1006.2 |
| 20260509220018 | 86 | 183 | 7.0 | 14.0 | 0.00 | 0.00 | 0.00 | 22 | 1006.2 |
| 20260509214512 | 86 | 150 | 7.0 | 11.0 | 0.00 | 0.00 | 0.00 | 20 | 1006.2 |
| 20260509213011 | 86 | 238 | 7.0 | 12.0 | 0.00 | 0.00 | 0.00 | 20 | 1006.3 |
| 20260509211509 | 86 | 128 | 6.0 | 11.0 | 0.00 | 0.00 | 0.00 | 20 | 1006.6 |
| 20260509210009 | 86 | 265 | 6.0 | 13.0 | 0.00 | 0.00 | 0.00 | 19 | 1006.7 |
| 20260509204508 | 86 | 217 | 4.0 | 12.0 | 0.00 | 0.00 | 0.00 | 20 | 1006.8 |
| 20260509203004 | 86 | 124 | 1.0 | 12.0 | 0.00 | 0.00 | 0.00 | 19 | 1007.3 |
| 20260509201502 | 85 | 232 | 6.0 | 10.0 | 0.00 | 0.00 | 0.00 | 20 | 1007.3 |
| 20260509200001 | 85 | 269 | 4.0 | 10.0 | 0.00 | 0.00 | 0.00 | 21 | 1007.6 |
| 20260509194600 | 86 | 220 | 6.0 | 13.0 | 0.00 | 0.00 | 0.00 | 21 | 1007.7 |
| 20260509193101 | 85 | 252 | 7.0 | 12.0 | 0.00 | 0.00 | 0.00 | 20 | 1007.9 |
| 20260509191558 | 86 | 163 | 5.0 | 13.0 | 0.00 | 0.00 | 0.00 | 20 | 1008.1 |
| 20260509190108 | 85 | 236 | 7.0 | 14.0 | 0.00 | 0.00 | 0.00 | 20 | 1008.2 |
| 20260509184556 | 85 | 230 | 4.0 | 10.0 | 0.00 | 0.00 | 0.00 | 20 | 1008.3 |
| 20260509183051 | 84 | 266 | 4.0 | 12.0 | 0.00 | 0.00 | 0.00 | 20 | 1008.3 |
| 20260509181549 | 84 | 278 | 5.0 | 11.0 | 0.00 | 0.00 | 0.00 | 21 | 1008.6 |
| 20260509180058 | 83 | 261 | 5.0 | 15.0 | 0.00 | 0.00 | 0.00 | 22 | 1008.9 |